Vorticity
nan nan nan nan nan nan nan nan nan nan nan nan nan nan nan nan nan nan nan nan nan nan nan nan nan nan nan nan nan nan nan nan
nan 9 9 15 19 17 13 11 10 8 8 7 8 8 6 7 10 9 7 8 8 6 8 8 7 8 9 7 8 7 7 nan
nan 6 7 9 9 11 16 18 12 8 7 8 10 12 11 9 8 10 9 9 7 7 8 8 7 8 10 8 6 6 9 nan
nan 6 8 8 8 7 10 12 19 15 8 2 5 8 10 13 11 10 10 10 8 7 7 7 8 8 9 9 8 7 7 nan
nan 6 9 8 9 9 9 9 17 17 13 8 6 2 3 8 9 9 11 11 9 9 8 8 7 7 10 9 8 7 7 nan
nan 8 9 10 10 8 10 10 12 21 17 8 7 5 4 9 14 12 8 10 9 8 9 8 7 7 10 10 8 7 7 nan
nan 8 8 10 9 8 9 10 10 22 21 11 9 6 5 7 10 8 10 8 9 9 8 8 9 8 8 9 10 8 6 nan
nan 7 9 9 9 10 9 10 9 21 22 12 9 9 10 9 8 8 7 6 10 11 8 8 9 10 9 9 9 9 8 nan
nan 8 9 8 10 9 6 9 13 20 26 15 11 10 8 12 10 8 10 10 12 11 9 9 9 10 9 8 8 10 10 nan
nan 9 9 9 10 11 10 10 12 22 25 15 11 12 12 11 10 8 10 10 11 11 10 10 9 8 8 8 10 11 9 nan
nan 9 9 11 10 10 8 10 12 14 21 20 14 11 9 10 11 11 9 11 10 9 7 9 9 10 11 9 8 10 10 nan
nan 8 10 10 10 11 12 11 11 13 12 16 16 12 11 10 10 11 10 11 9 9 9 9 9 8 8 9 9 9 8 nan
nan 9 10 10 10 10 11 11 12 13 15 19 15 9 9 10 10 12 9 9 12 10 10 8 9 9 8 8 8 8 8 nan
nan 9 10 10 10 10 10 11 12 11 14 24 21 12 9 8 9 10 10 9 11 9 9 9 8 9 9 9 8 9 10 nan
nan 10 9 10 10 10 11 12 12 13 13 13 13 19 21 15 12 12 12 11 9 10 11 11 10 10 10 10 10 10 11 nan
nan 10 10 10 10 10 10 11 12 13 12 11 10 13 16 20 20 15 11 11 10 11 10 10 11 10 8 9 12 14 11 nan
nan 10 10 10 10 11 10 10 12 13 12 11 10 11 13 13 15 13 12 12 12 11 10 11 9 6 16 20 15 11 11 nan
nan 10 10 10 10 11 10 11 12 13 12 11 11 9 10 13 15 12 13 10 11 10 10 10 10 8 16 24 19 10 10 nan
nan nan nan nan nan nan nan nan nan nan nan nan nan nan nan nan nan nan nan nan nan nan nan nan nan nan nan nan nan nan nan nan
CAPE
0 0 0 0 0 0 0 2 1632 1870 1743 1406 1003 829 759 630 664 677 506 457 376 411 492 333 179 126 83 81 99 40 16 4
0 0 0 0 0 0 0 0 758 1874 2015 1674 1395 1212 1147 1018 787 609 456 451 355 441 338 251 166 171 156 178 169 118 32 2
0 0 0 0 0 0 0 0 143 1806 1838 1866 1769 1594 1478 1269 974 683 467 489 388 430 282 229 190 268 158 187 137 108 54 3
0 0 0 0 0 0 0 0 2 1543 1758 1916 872 1141 932 1076 1045 883 722 581 438 450 240 231 222 192 119 114 91 58 58 2
0 0 0 0 0 0 0 0 0 873 1662 1761 1461 1434 1306 1043 1043 927 906 623 466 418 189 210 187 141 91 61 57 25 1 9
0 0 0 0 0 0 0 0 0 0 1663 1665 1531 1332 1202 980 1072 848 643 466 391 288 151 91 130 92 82 52 17 2 10 2
0 0 0 0 0 0 0 0 0 0 1617 1694 1454 1318 1143 826 901 778 539 379 198 117 80 35 77 94 40 18 8 1 0 0
0 0 0 0 0 0 0 2 1 0 1246 1696 1551 1260 985 823 788 694 554 370 199 77 74 43 78 88 59 22 0 1 0 2
0 0 0 0 1 3 1 2 2 1 1095 1694 1678 1292 604 509 536 414 325 281 214 125 105 55 54 46 16 0 0 0 1 4
0 0 0 1 1 2 3 4 2 2 1661 1420 1186 520 281 204 245 225 180 90 5 20 9 8 15 14 0 1 1 3 1 1
0 0 0 2 3 2 3 5 5 8 13 904 573 389 235 144 127 86 35 13 7 2 0 0 1 2 0 1 3 4 17 18
0 0 0 1 2 3 3 7 17 12 4 54 271 172 114 96 77 32 22 0 1 0 0 0 0 0 0 0 0 0 1 1
0 1 1 2 3 3 3 4 7 4 5 4 131 64 35 25 5 1 1 1 1 0 0 0 0 0 0 0 0 0 0 1
1 1 2 3 4 4 4 6 8 3 2 3 8 13 14 10 1 1 1 1 0 0 0 0 0 0 0 0 0 0 1 2
2 2 3 3 4 4 4 5 7 12 2 1 1 3 1 0 2 1 1 0 0 0 0 0 0 0 0 0 0 0 0 0
2 3 4 4 3 3 3 3 4 3 2 2 2 2 1 1 1 0 1 0 0 0 0 0 0 0 0 0 0 0 0 0
1 1 3 5 4 3 4 4 4 4 3 2 2 1 2 2 2 3 1 0 0 0 0 0 0 0 0 1 1 0 0 0
3 2 4 4 3 5 3 3 2 2 2 2 1 0 1 1 2 2 1 1 0 1 1 1 1 1 0 0 0 0 0 1
3 2 2 2 2 1 2 2 2 1 1 1 1 1 0 0 0 1 1 1 1 2 1 1 1 2 1 0 0 0 0 1